Regional Weather Roundup
Issued by NWS

Home | Current Version | Previous Version | Text Only | Print | Product List | Glossary Off
Versions: 1 2 3 4 5 6 7 8 9 10 11 12 13 14 15 16 17 18 19 20 21 22 23 24 25 26 27 28 29 30 31 32 33 34 35 36 37 38 39 40 41 42 43 44 45 46 47 48 49 50

819
ASUS43 KMKX 251511
RWRWI

WISCONSIN REGIONAL WEATHER ROUNDUP
NATIONAL WEATHER SERVICE MILWAUKEE/SULLIVAN WI
1000 AM CDT MON SEP 25 2017

NOTE: "FAIR" INDICATES FEW OR NO CLOUDS BELOW 12,000 FEET WITH NO
SIGNIFICANT WEATHER AND/OR OBSTRUCTIONS TO VISIBILITY.

WIZ001-002-006>008-014>016-023>028-251600-
NORTHWEST WISCONSIN

CITY           SKY/WX    TMP DP  RH WIND       PRES   REMARKS
SUPERIOR ARPT  DRIZZLE   56  54  92 NW6       30.02R
ASHLAND        CLOUDY    63  60  90 NW6       29.99R
HAYWARD        CLOUDY    64  61  90 VRB5      30.00R
SIREN          CLOUDY    58  57  96 N6        30.02R
CUMBERLAND     CLOUDY    63  61  94 NW6       29.99F
RICE LAKE      CLOUDY    68  65  91 CALM      30.00S
CHETEK         PTSUNNY   71  66  84 CALM      29.98S
LADYSMITH      MOSUNNY   72  66  82 CALM      30.00S
EAU CLAIRE     MOSUNNY   72  65  78 E6        29.96S
MENOMONIE      MOSUNNY   72  66  81 CALM      29.97F
NEW RICHMOND   CLOUDY    62  60  96 NW8       30.00S
OSCEOLA        CLOUDY    60  60 100 NW8       30.02F
$$

WIZ003>005-009-010-017-018-251600-
NORTH CENTRAL WISCONSIN

CITY           SKY/WX    TMP DP  RH WIND       PRES   REMARKS
MANITOWISH WTR NOT AVBL
ARBOR VITAE    MOSUNNY   72  65  79 CALM      30.00F
WOODRUFF       MOSUNNY   72  65  79 CALM      30.00F
RHINELANDER    SUNNY     74  64  71 W5        30.02S
EAGLE RIVER    SUNNY     73  61  66 CALM      30.01S
LAND O LAKES   MOSUNNY   73  63  69 W5        30.03R
PHILLIPS       CLOUDY    69  66  89 NE3       29.99F
TOMAHAWK       PTSUNNY   72  62  71 CALM      30.01S
MEDFORD        MOSUNNY   71  63  75 CALM      30.00S
MERRILL        SUNNY     72  64  75 CALM      30.00S
$$

WIZ029-030-035-036-043>047-251600-
CENTRAL WISCONSIN

CITY           SKY/WX    TMP DP  RH WIND       PRES   REMARKS
WAUSAU         MOSUNNY   73  63  70 S6        29.98F
MOSINEE        MOSUNNY   72  64  78 S5        30.01S
MARSHFIELD     SUNNY     75  62  64 S5        29.98F
STEVENS POINT  SUNNY     75  62  64 SE3       30.00F
WAUPACA        MOSUNNY   79  65  62 CALM      29.99F HX  81
WAUTOMA        MOSUNNY   75  64  68 CALM      29.99F
WISC RAPIDS    MOSUNNY   77  64  64 SW5       30.00S
CAMP DOUGLAS   NOT AVBL
$$

WIZ011>013-019>022-031-037>040-048>050-251600-
NORTHEAST WISCONSIN

CITY           SKY/WX    TMP DP  RH WIND       PRES   REMARKS
ANTIGO         MOSUNNY   73  63  72 S5        30.02S
SHAWANO        MOSUNNY   78  64  62 CALM      29.99S HX  80
OCONTO         MOSUNNY   74  64  72 CALM      29.99S
STURGEON BAY   PTSUNNY   77  63  61 S7        30.01S
GREEN BAY      MOSUNNY   77  65  66 VRB5      29.99S
MANITOWOC      CLOUDY    73  65  75 E3        30.01S
APPLETON       PTSUNNY   75  61  60 S6        29.99S
CLINTONVILLE   SUNNY     77  63  61 CALM      29.99S
OSHKOSH        MOSUNNY   78  64  61 S6        29.99S HX  80
$$

WIZ032>034-041-042-053>061-251600-
SOUTHWEST WISCONSIN

CITY           SKY/WX    TMP DP  RH WIND       PRES   REMARKS
LA CROSSE      MOSUNNY   77  64  64 SW7       29.95S
SPARTA         MOSUNNY   77  64  63 CALM      29.97S
VIROQUA        MOSUNNY   77  65  66 S6        29.99F
BOSCOBEL       SUNNY     78  64  61 VRB3      29.97F HX  80
PRAIRIE DU CHI MOSUNNY   77  63  61 E3        29.96F
PLATTEVILLE    SUNNY     80  65  59 S3        30.00S HX  82
$$

WIZ056-057-062-063-064-067-068-251600-
SOUTH CENTRAL WISCONSIN

CITY           SKY/WX    TMP DP  RH WIND       PRES   REMARKS
REEDSBURG      SUNNY     78  64  61 SW7       29.99S HX  80
BARABOO/DELLS  SUNNY     78  61  54 SW7       29.99S HX  80
LONE ROCK      SUNNY     77  64  64 CALM      29.98F
MINERAL POINT  SUNNY     79  64  61 S5        30.01S HX  81
MADISON        MOSUNNY   77  63  61 S5        29.99F
MIDDLETON      SUNNY     81  62  52 S3        30.00F HX  82
WATERTOWN      SUNNY     78  63  59 S6        30.01S HX  80
MONROE         SUNNY     81  61  50 S5        30.00F HX  81
JANESVILLE     MOSUNNY   77  61  57 S3        30.00F
$$

WIZ051-052-058>065-066-070>072-251600-
SOUTHEAST WISCONSIN

CITY           SKY/WX    TMP DP  RH WIND       PRES   REMARKS
MILWAUKEE      MOSUNNY   83  62  49 S5        30.01S HX  84
WAUKESHA       MOSUNNY   75  61  60 SW5       30.03S
MILWAUKEE/TIMM MOSUNNY   81  55  41 S5        30.01F HX  80
RACINE         SUNNY     78  64  61 SE8       30.03S HX  80
BURLINGTON     SUNNY     81  64  56 CALM      30.01S HX  82
KENOSHA        SUNNY     82  62  50 S3        30.02S HX  83
FOND DU LAC    SUNNY     79  59  50 SW8       30.00S HX  80
SHEBOYGAN      MOSUNNY   81  67  62 S5        30.00F HX  83
WEST BEND        N/A     81  63  54 SW5       30.00F HX  82
JUNEAU         SUNNY     76  62  61 S5        30.02S
$$

LSZ147-162-251600-
LAKE SUPERIOR

STATION/POSITION TIME  TEMP    WIND        PRES    WAVE
                       AIR SEA DIR/SP/G            HT/PER
                 (UTC) (F)     (DEG/KT/KT) (MB)    (FT/S)
W MID LAKE BUOY  1450   59 56  260/ 10/ 12 1014.3R   1/ 3
DEVILS ISLAND    1500   60     300/  8/ 10 1015.2S
PORT WING        1340   62     270/  8/ 10 1015.6R
SAXON HARBOR     1440   64     340/  5/  7 1014.9S
$$

LMZ867-665-643>646-251600-
LAKE MICHIGAN

STATION/POSITION TIME  TEMP    WIND        PRES    WAVE
                       AIR SEA DIR/SP/G            HT/PER
                 (UTC) (F)     (DEG/KT/KT) (MB)    (FT/S)
S GREEN BAY BUOY 1430   71 69  190/  4/  6 1015.4R
N MID LAKE BUOY  1450   69 67  180/ 12/ 14 1016.3R   1/ 3
NORTHPORT PIER   1440   71     150/  5/ 10 1015.6S
KEWAUNEE LAKESHO 1448   65     150/  5/  6 1015.2S
SHEBOYGAN LAKESH 1500   70     170/ 11/ 12 1015.2F
PORT WASHINGTON  1440   73     130/  3/  4 1016.9S
ATWATER BUOY     1409   69 65  150/  6/  6 1016.3R
MILWAUKEE LAKESH 1450   68     130/  7/  7   N/A
S MID LAKE BUOY  1450   72 71  150/ 10/ 12 1016.8R   1/ 3
KENOSHA   LAKESH 1500   73     170/  8/ 10 1016.3
$$

TC  - TEMPERATURE IN CELSIUS
VSB - VISIBILITY IN STATUTE MILES
WCI - WIND CHILL INDEX
HX  - HEAT INDEX





USA.gov is the U.S. government's official web portal to all federal, state and local government web resources and services.